[[{"header":{"parameterUnit":"m.s-1","parameterCategory":2,"la1":30.2992,"la2":30.254,"lo1":-89.0895,"lo2":-89.0443,"dy":0.0025,"dx":0.0025,"nx":19,"ny":19,"refTime":"2026-05-02T21:00:00:Z","depth":"0","parameterNumber":2,"parameterNumberName":"U-component_of_CURRENTS"},"data":[0,0,0,-0.2536,-0.2537,-0.2573,-0.2573,-0.2454,-0.2452,0,0,0,0,0,0,0,0,0,0,0,-0.25,-0.25,-0.2536,-0.2537,-0.2573,-0.2573,-0.2454,-0.2452,0,0,0,0,0,0,0,0,0,0,0,-0.25,-0.25,-0.25,-0.2538,-0.2573,-0.2573,-0.2454,-0.2464,0,0,0,0,0,0,0,0,0,0,-0.2448,-0.2425,-0.25,-0.25,-0.2538,-0.2573,-0.2573,-0.2466,-0.2463,-0.2396,0,-0.2402,0,-0.2438,-0.2442,-0.2442,0,0,0,-0.2519,-0.2427,-0.2464,-0.25,-0.2539,-0.2573,-0.2552,-0.2466,-0.2462,-0.2392,-0.2401,-0.2398,-0.2436,-0.2441,-0.2441,-0.2181,-0.2179,0,0,-0.2517,-0.2476,-0.2467,-0.2462,-0.2543,-0.2551,-0.2553,-0.2465,-0.2439,-0.24,-0.2397,-0.2434,-0.244,-0.2439,-0.2182,-0.218,0,0,0,-0.2524,-0.2474,-0.2515,-0.2465,-0.2493,-0.2552,-0.2555,-0.2442,-0.2464,-0.2396,-0.2433,-0.244,-0.2438,-0.2184,-0.2182,-0.2155,0,0,0,-0.2522,-0.2481,-0.2514,-0.2486,-0.2496,-0.2487,-0.2533,-0.247,-0.2463,-0.2434,-0.2439,-0.2436,-0.2186,-0.2183,-0.216,-0.2142,0,0,0,-0.2499,-0.2478,-0.2488,-0.2484,-0.2515,-0.249,-0.2506,-0.247,-0.2485,-0.2442,-0.2436,-0.2187,-0.2183,-0.2164,-0.2148,-0.1976,0,0,0,-0.2449,-0.2414,-0.2486,-0.2456,-0.2515,-0.2486,-0.2508,-0.2467,-0.2425,-0.2439,-0.2186,-0.2182,-0.2166,-0.2152,-0.1982,-0.165,-0.1595,0,0,-0.2376,-0.2404,-0.2392,-0.2458,-0.2421,-0.2481,-0.2376,-0.2342,-0.2331,-0.2205,-0.22,-0.2158,-0.2149,-0.1977,-0.1413,-0.1365,0,0,0,-0.2351,-0.2336,-0.2341,-0.234,-0.2355,-0.2314,-0.2296,-0.227,-0.2176,-0.2295,-0.2081,-0.2074,-0.1968,-0.1778,-0.1739,-0.1654,-0.2163,-0.2163,-0.2164,-0.2138,-0.2201,-0.2159,-0.2208,-0.2185,-0.2165,-0.2118,-0.2056,-0.2075,-0.2012,-0.1997,-0.1773,-0.1569,-0.1536,-0.1454,-0.1934,-0.1934,-0.1934,-0.1934,-0.2002,-0.1975,-0.2033,-0.2029,-0.202,-0.1943,-0.1903,-0.1913,-0.1782,-0.187,-0.1767,-0.1691,-0.1491,-0.1419,-0.1931,-0.1931,-0.1932,-0.1932,-0.1932,-0.1853,-0.1849,-0.1892,-0.1874,-0.1827,-0.1828,-0.1687,-0.1738,-0.1716,-0.1657,-0.1359,-0.1356,-0.1335,-0.1578,-0.1577,-0.1576,-0.1575,-0.1574,-0.1574,-0.1671,-0.1719,-0.1687,-0.1712,-0.1688,-0.1633,-0.157,-0.1447,-0.128,-0.1256,-0.1251,-0.119,-0.1662,-0.1726,-0.1561,-0.1563,-0.1565,-0.1566,-0.1567,-0.1477,-0.1524,-0.1468,-0.1455,-0.1386,-0.1193,-0.1187,-0.0805,-0.071,-0.0532,-0.062,-0.0992,-0.0945,-0.0972,-0.1015,-0.0675,-0.0675,-0.0675,-0.0675,-0.1316,-0.1344,-0.1244,-0.1172,-0.104,-0.0964,-0.0434,-0.0193,-0.008,-0.005,-0.0215,-0.0245,-0.0285,-0.0209,-0.0253,-0.0285,0.0232,0.0232,0.0233,-0.1159,-0.1166,-0.1031,-0.1002,-0.0872,-0.0608,-0.009,0.0254,0.0345,0.0259,-0.0164,-0.0202,-0.0278,-0.0348,-0.0264,-0.0333,-0.04,0,0]},{"header":{"parameterUnit":"m.s-1","parameterCategory":2,"la1":30.2992,"la2":30.254,"lo1":-89.0895,"lo2":-89.0443,"dy":0.0025,"dx":0.0025,"nx":19,"ny":19,"refTime":"2026-05-02T21:00:00:Z","depth":"0","parameterNumber":3,"parameterNumberName":"V-component_of_CURRENTS"},"data":[0,0,0,-0.0391,-0.0389,-0.022,-0.0219,0.0108,0.011,0,0,0,0,0,0,0,0,0,0,0,-0.0452,-0.0451,-0.0391,-0.0388,-0.022,-0.0219,0.0107,0.011,0,0,0,0,0,0,0,0,0,0,0,-0.0452,-0.0452,-0.0451,-0.0388,-0.022,-0.0219,0.0106,-0.004,0,0,0,0,0,0,0,0,0,0,-0.0214,-0.0313,-0.0452,-0.0451,-0.0387,-0.0221,-0.0219,-0.0048,-0.0031,0.0052,0,0.0052,0,0.0078,0.0132,0.0133,0,0,0,-0.0354,-0.0327,-0.0273,-0.0451,-0.0386,-0.0221,-0.0286,-0.0039,-0.0019,0.0075,0.0056,0.0068,0.0083,0.0134,0.0135,0.0231,0.0229,0,0,-0.0363,-0.0415,-0.0288,-0.0263,-0.0373,-0.0292,-0.0282,-0.0028,-0.0023,0.0058,0.0076,0.0089,0.0136,0.0138,0.0232,0.023,0,0,0,-0.0413,-0.0422,-0.0376,-0.0276,-0.026,-0.0288,-0.0276,-0.0034,-0.0018,0.0079,0.0093,0.0138,0.0142,0.0233,0.0231,0.0096,0,0,0,-0.0417,-0.0453,-0.0381,-0.0409,-0.0267,-0.0164,-0.0288,-0.0035,-0.0006,0.0091,0.0138,0.0145,0.0235,0.0232,0.0103,0.0162,0,0,0,-0.0454,-0.0457,-0.0446,-0.0413,-0.0354,-0.0168,-0.0136,-0.0028,0.0002,0.0133,0.0145,0.0236,0.0233,0.0109,0.0168,0.0362,0,0,0,-0.0498,-0.0541,-0.0448,-0.0492,-0.0357,-0.0321,-0.0138,-0.0078,0.0011,0.0139,0.0235,0.0232,0.0111,0.0172,0.0362,0.0666,0.0692,0,0,-0.0586,-0.0553,-0.0581,-0.0495,-0.0505,-0.0339,-0.0325,-0.0124,-0.0004,0.017,0.0173,0.0101,0.0169,0.0362,0.0483,0.0516,0,0,0,-0.0631,-0.065,-0.0641,-0.0618,-0.0546,-0.0433,-0.0281,-0.0201,-0.006,0.003,0.0074,0.0124,0.0251,0.0431,0.0453,0.0479,0.0217,0.0217,0.0218,-0.0769,-0.0736,-0.0769,-0.0711,-0.0664,-0.0504,-0.0397,-0.025,-0.0167,-0.0157,-0.0013,0.0018,0.0193,0.0218,0.0231,-0.0103,-0.0103,-0.0103,-0.0104,-0.0885,-0.0887,-0.0833,-0.0857,-0.0725,-0.0673,-0.0452,-0.0369,-0.0134,-0.016,-0.0031,0.0244,0.0238,0.0243,-0.0113,-0.0111,-0.011,-0.0109,-0.0109,-0.0946,-0.0938,-0.096,-0.0936,-0.084,-0.0691,-0.0369,-0.0271,-0.0169,-0.0072,0.0318,0.0324,0.0379,0.0031,0.0032,0.0033,0.0034,0.0035,0.0035,-0.0974,-0.0991,-0.0997,-0.097,-0.0871,-0.0628,-0.0273,-0.0007,0.0266,0.031,0.0314,0.0395,0.0067,0.0118,0.005,0.0048,0.0046,0.0044,0.0043,-0.1005,-0.1008,-0.1,-0.0935,-0.0631,-0.024,0.0052,0.0658,0.0866,0.1054,0.0825,0.0568,0.072,0.0704,0.0774,0.0881,0.0881,0.0882,0.0882,-0.0991,-0.1007,-0.0893,-0.0687,-0.034,0.0008,0.0747,0.1211,0.1379,0.1334,0.1169,0.1093,0.1059,0.1223,0.1194,0.127,0.1501,0.1502,0.1502,-0.0965,-0.0946,-0.0789,-0.0585,-0.0161,0.0357,0.0988,0.1563,0.1668,0.1511,0.1135,0.1109,0.0962,0.0907,0.1131,0.1089,0.1203,0,0]}],[{"header":{"parameterUnit":"m.s-1","parameterCategory":2,"la1":30.2992,"la2":30.254,"lo1":-89.0895,"lo2":-89.0443,"dy":0.0025,"dx":0.0025,"nx":19,"ny":19,"refTime":"2026-05-02T21:00:00:Z","depth":"2","parameterNumber":2,"parameterNumberName":"U-component_of_CURRENTS"},"data":[0,0,0,-0.1731,-0.1731,-0.18,-0.18,-0.185,-0.185,0,0,0,0,0,0,0,0,0,0,0,-0.1717,-0.1718,-0.173,-0.1732,-0.1799,-0.18,-0.185,-0.185,0,0,0,0,0,0,0,0,0,0,0,-0.1717,-0.1718,-0.1718,-0.1732,-0.1799,-0.18,-0.185,-0.1811,0,0,0,0,0,0,0,0,0,0,-0.1751,-0.1726,-0.1718,-0.1718,-0.1732,-0.1799,-0.18,-0.181,-0.1813,-0.1803,0,-0.1814,0,-0.1821,-0.1851,-0.1851,0,0,0,-0.1747,-0.1723,-0.1749,-0.1718,-0.1732,-0.1799,-0.1773,-0.1812,-0.1816,-0.1808,-0.1815,-0.1817,-0.1821,-0.1851,-0.1851,-0.1702,-0.17,0,0,-0.1743,-0.1721,-0.1747,-0.1752,-0.1749,-0.1771,-0.1775,-0.1815,-0.1812,-0.1815,-0.1818,-0.1822,-0.1851,-0.1851,-0.1703,-0.1701,0,0,0,-0.1722,-0.1718,-0.1746,-0.175,-0.1758,-0.1772,-0.1777,-0.1811,-0.1823,-0.1818,-0.1823,-0.1851,-0.1851,-0.1705,-0.1703,-0.1781,0,0,0,-0.172,-0.1705,-0.1744,-0.173,-0.1758,-0.1786,-0.1772,-0.1821,-0.1825,-0.1823,-0.1851,-0.1851,-0.1707,-0.1704,-0.1783,-0.1758,0,0,0,-0.1714,-0.1704,-0.1714,-0.1729,-0.1752,-0.1786,-0.1801,-0.1822,-0.1826,-0.1851,-0.1852,-0.1709,-0.1704,-0.1785,-0.1761,-0.1675,0,0,0,-0.1688,-0.1689,-0.1714,-0.171,-0.1751,-0.1742,-0.1801,-0.1824,-0.1843,-0.1851,-0.1707,-0.1703,-0.1786,-0.1764,-0.1678,-0.1501,-0.1472,0,0,-0.1673,-0.1686,-0.1684,-0.1707,-0.1703,-0.1734,-0.1722,-0.1797,-0.1762,-0.1699,-0.1696,-0.1783,-0.1762,-0.1676,-0.1259,-0.1238,0,0,0,-0.1668,-0.1671,-0.1669,-0.1678,-0.1678,-0.1693,-0.1739,-0.1734,-0.1714,-0.1749,-0.1674,-0.1654,-0.1601,-0.1497,-0.1478,-0.1683,-0.1684,-0.1684,-0.1684,-0.1635,-0.1648,-0.1636,-0.1653,-0.165,-0.167,-0.1668,-0.1644,-0.1667,-0.1636,-0.1643,-0.1516,-0.1404,-0.1388,-0.1583,-0.1584,-0.1584,-0.1584,-0.1584,-0.16,-0.1573,-0.1615,-0.1607,-0.1626,-0.1621,-0.161,-0.1635,-0.155,-0.1581,-0.1527,-0.1487,-0.1373,-0.1588,-0.1587,-0.1587,-0.1586,-0.1586,-0.1586,-0.1539,-0.1521,-0.1546,-0.1542,-0.1557,-0.1585,-0.1526,-0.154,-0.1543,-0.1516,-0.1328,-0.1325,-0.1574,-0.1487,-0.1487,-0.1486,-0.1486,-0.1486,-0.1485,-0.1435,-0.1459,-0.1426,-0.1453,-0.144,-0.143,-0.1445,-0.1402,-0.1326,-0.1305,-0.1303,-0.148,-0.1483,-0.1559,-0.1478,-0.1479,-0.148,-0.1481,-0.1481,-0.1291,-0.1318,-0.1253,-0.1232,-0.1201,-0.1114,-0.1192,-0.1101,-0.1068,-0.0988,-0.1159,-0.1169,-0.11,-0.1111,-0.1171,-0.0994,-0.0994,-0.0994,-0.0994,-0.1179,-0.1195,-0.1072,-0.099,-0.0927,-0.0938,-0.0781,-0.0754,-0.0793,-0.077,-0.0781,-0.0809,-0.0832,-0.0751,-0.0771,-0.0826,-0.0558,-0.0558,-0.0557,-0.1065,-0.1051,-0.0914,-0.0864,-0.0789,-0.0732,-0.0557,-0.0404,-0.0386,-0.0549,-0.0796,-0.0947,-0.1019,-0.1043,-0.0944,-0.0966,-0.1064,0,0]},{"header":{"parameterUnit":"m.s-1","parameterCategory":2,"la1":30.2992,"la2":30.254,"lo1":-89.0895,"lo2":-89.0443,"dy":0.0025,"dx":0.0025,"nx":19,"ny":19,"refTime":"2026-05-02T21:00:00:Z","depth":"2","parameterNumber":3,"parameterNumberName":"V-component_of_CURRENTS"},"data":[0,0,0,-0.063,-0.0628,-0.0533,-0.0533,-0.029,-0.0288,0,0,0,0,0,0,0,0,0,0,0,-0.066,-0.0659,-0.063,-0.0628,-0.0533,-0.0533,-0.0291,-0.0288,0,0,0,0,0,0,0,0,0,0,0,-0.066,-0.0659,-0.0659,-0.0628,-0.0534,-0.0533,-0.0291,-0.0387,0,0,0,0,0,0,0,0,0,0,-0.0492,-0.0548,-0.066,-0.0659,-0.0628,-0.0534,-0.0533,-0.0393,-0.0381,-0.0306,0,-0.0307,0,-0.0299,-0.0271,-0.027,0,0,0,-0.0605,-0.0559,-0.0535,-0.0659,-0.0627,-0.0534,-0.057,-0.0387,-0.0374,-0.029,-0.0304,-0.0295,-0.0295,-0.027,-0.0268,-0.0092,-0.0092,0,0,-0.061,-0.0631,-0.0545,-0.0527,-0.0619,-0.0573,-0.0567,-0.038,-0.0369,-0.0303,-0.029,-0.0291,-0.0268,-0.0266,-0.0092,-0.0092,0,0,0,-0.0641,-0.0635,-0.0617,-0.0536,-0.0533,-0.0571,-0.0564,-0.0377,-0.0373,-0.0288,-0.0288,-0.0267,-0.0263,-0.0092,-0.0092,-0.0163,0,0,0,-0.0643,-0.0654,-0.062,-0.0629,-0.0538,-0.0471,-0.0565,-0.0386,-0.0365,-0.029,-0.0266,-0.0261,-0.0092,-0.0092,-0.0161,-0.018,0,0,0,-0.0661,-0.0656,-0.0651,-0.0631,-0.0601,-0.0475,-0.0459,-0.0381,-0.0365,-0.027,-0.026,-0.0092,-0.0092,-0.016,-0.0177,-0.0112,0,0,0,-0.0675,-0.0678,-0.0652,-0.0647,-0.0603,-0.0541,-0.046,-0.0404,-0.0334,-0.0265,-0.0092,-0.0092,-0.0159,-0.0175,-0.0112,-0.0078,-0.0077,0,0,-0.0688,-0.068,-0.0676,-0.0651,-0.0614,-0.0551,-0.0487,-0.0373,-0.0299,-0.014,-0.0137,-0.0162,-0.0177,-0.0112,-0.0072,-0.0071,0,0,0,-0.0686,-0.0687,-0.0669,-0.0643,-0.0587,-0.0524,-0.0425,-0.037,-0.0259,-0.0261,-0.0139,-0.0145,-0.0103,-0.0082,-0.008,-0.0091,-0.0091,-0.0091,-0.0091,-0.0724,-0.0698,-0.0685,-0.0641,-0.0595,-0.0496,-0.0432,-0.0332,-0.0263,-0.0239,-0.0188,-0.0167,-0.0148,-0.0145,-0.0175,-0.0176,-0.0176,-0.0176,-0.0176,-0.0751,-0.075,-0.0706,-0.0696,-0.0621,-0.0564,-0.0417,-0.037,-0.0232,-0.022,-0.0174,-0.014,-0.0148,-0.0181,-0.018,-0.018,-0.0179,-0.0179,-0.0178,-0.0793,-0.0787,-0.0785,-0.0757,-0.0707,-0.0612,-0.052,-0.0405,-0.029,-0.0248,-0.0148,-0.0147,-0.0182,-0.0208,-0.0207,-0.0207,-0.0207,-0.0207,-0.0207,-0.0836,-0.0824,-0.0837,-0.081,-0.0792,-0.0733,-0.0568,-0.0456,-0.0276,-0.0198,-0.0196,-0.0175,-0.0174,-0.018,-0.0204,-0.0205,-0.0205,-0.0205,-0.0205,-0.0872,-0.0879,-0.0885,-0.0883,-0.0844,-0.0773,-0.066,-0.042,-0.0274,-0.0163,-0.0136,-0.0138,-0.009,-0.009,-0.0092,-0.0091,-0.0091,-0.0091,-0.0091,-0.0901,-0.0904,-0.0903,-0.0893,-0.0873,-0.0781,-0.064,-0.0464,-0.0245,-0.0171,-0.0169,-0.0198,-0.0199,-0.0159,-0.0157,-0.0161,-0.0178,-0.0179,-0.0179,-0.0911,-0.0907,-0.0909,-0.0905,-0.0873,-0.0793,-0.0632,-0.0404,-0.017,-0.0189,-0.0254,-0.0083,-0.0119,-0.0124,-0.0054,-0.0055,-0.0057,0,0]}],[{"header":{"parameterUnit":"m.s-1","parameterCategory":2,"la1":30.2992,"la2":30.254,"lo1":-89.0895,"lo2":-89.0443,"dy":0.0025,"dx":0.0025,"nx":19,"ny":19,"refTime":"2026-05-02T21:00:00:Z","depth":"4","parameterNumber":2,"parameterNumberName":"U-component_of_CURRENTS"},"data":[0,0,0,-0.1109,-0.111,-0.1169,-0.1169,-0.1173,-0.1173,0,0,0,0,0,0,0,0,0,0,0,-0.1087,-0.1087,-0.1109,-0.111,-0.1169,-0.1169,-0.1173,-0.1173,0,0,0,0,0,0,0,0,0,0,0,-0.1086,-0.1087,-0.1088,-0.111,-0.1169,-0.1169,-0.1173,-0.1146,0,0,0,0,0,0,0,0,0,0,-0.1097,-0.1096,-0.1087,-0.1088,-0.1111,-0.1169,-0.1169,-0.1145,-0.1147,-0.1127,0,-0.114,0,-0.1157,-0.1172,-0.1172,0,0,0,-0.1108,-0.1094,-0.1103,-0.1088,-0.1111,-0.1169,-0.1142,-0.1147,-0.1149,-0.1129,-0.114,-0.1141,-0.1157,-0.1172,-0.1172,-0.1173,-0.1173,0,0,-0.1104,-0.1102,-0.1102,-0.1105,-0.113,-0.114,-0.1144,-0.1149,-0.1156,-0.114,-0.1141,-0.1157,-0.1172,-0.1171,-0.1173,-0.1173,0,0,0,-0.1097,-0.1099,-0.111,-0.1104,-0.1121,-0.1142,-0.1146,-0.1156,-0.1157,-0.1142,-0.1157,-0.1171,-0.1171,-0.1173,-0.1173,-0.1225,0,0,0,-0.1095,-0.1095,-0.1108,-0.1108,-0.1121,-0.1151,-0.1152,-0.1157,-0.1159,-0.1157,-0.1171,-0.1171,-0.1172,-0.1173,-0.1224,-0.1183,0,0,0,-0.1083,-0.1094,-0.1101,-0.1108,-0.1134,-0.1151,-0.1154,-0.1158,-0.1167,-0.1172,-0.1171,-0.1172,-0.1173,-0.1222,-0.1182,-0.1088,0,0,0,-0.1078,-0.109,-0.1101,-0.1117,-0.1133,-0.1162,-0.1155,-0.1174,-0.118,-0.1171,-0.1173,-0.1173,-0.1222,-0.1181,-0.1089,-0.0945,0,0,0,-0.1087,-0.1092,-0.1099,-0.1109,-0.1141,-0.1153,-0.1193,-0.1196,-0.1176,-0.1164,-0.1165,-0.1224,-0.1182,-0.1088,-0.0968,0,0,0,0,-0.1097,-0.1105,-0.1113,-0.1138,-0.1159,-0.1186,-0.1211,-0.1213,-0.1219,-0.1183,-0.1217,-0.1186,-0.1126,-0.1047,-0.1175,-0.1175,-0.1174,-0.1174,-0.1174,-0.1113,-0.1122,-0.1137,-0.1158,-0.1182,-0.1218,-0.1221,-0.1225,-0.124,-0.125,-0.1227,-0.1181,-0.1106,-0.1257,-0.1257,-0.1257,-0.1257,-0.1257,-0.1258,-0.1109,-0.1096,-0.114,-0.1153,-0.1191,-0.1229,-0.1246,-0.1258,-0.1219,-0.1261,-0.1201,-0.1108,-0.1263,-0.1262,-0.1261,-0.126,-0.126,-0.1259,-0.1259,-0.1077,-0.1068,-0.1097,-0.1123,-0.1166,-0.1215,-0.1169,-0.1204,-0.1206,-0.1176,-0.102,-0.1157,-0.1148,-0.1144,-0.1143,-0.1143,-0.1142,-0.1142,-0.1141,-0.1008,-0.1038,-0.1031,-0.1076,-0.1086,-0.1094,-0.1109,-0.106,-0.1076,-0.0994,-0.1154,-0.1139,-0.1143,-0.1137,-0.1133,-0.1134,-0.1136,-0.1136,-0.1137,-0.0912,-0.0942,-0.0915,-0.0916,-0.0915,-0.0909,-0.0955,-0.086,-0.077,-0.0698,-0.0871,-0.0887,-0.0816,-0.0826,-0.0807,-0.0705,-0.0703,-0.0701,0,-0.0839,-0.0855,-0.079,-0.0743,-0.0693,-0.0765,-0.0634,-0.0618,-0.0627,-0.0611,-0.0753,-0.0952,-0.0962,-0.0891,-0.0896,-0.0876,0,0,0,-0.0767,-0.0759,-0.0672,-0.0642,-0.0576,-0.0543,-0.0589,-0.0535,-0.066,-0.055,-0.065,-0.0664,-0.0962,-0.1108,-0.1034,-0.1038,-0.1022,0,0]},{"header":{"parameterUnit":"m.s-1","parameterCategory":2,"la1":30.2992,"la2":30.254,"lo1":-89.0895,"lo2":-89.0443,"dy":0.0025,"dx":0.0025,"nx":19,"ny":19,"refTime":"2026-05-02T21:00:00:Z","depth":"4","parameterNumber":3,"parameterNumberName":"V-component_of_CURRENTS"},"data":[0,0,0,-0.0469,-0.0469,-0.0446,-0.0446,-0.0347,-0.0346,0,0,0,0,0,0,0,0,0,0,0,-0.0475,-0.0476,-0.0469,-0.0469,-0.0446,-0.0446,-0.0347,-0.0346,0,0,0,0,0,0,0,0,0,0,0,-0.0475,-0.0475,-0.0476,-0.0469,-0.0446,-0.0446,-0.0347,-0.0379,0,0,0,0,0,0,0,0,0,0,-0.0408,-0.0433,-0.0475,-0.0476,-0.0469,-0.0446,-0.0446,-0.0381,-0.0377,-0.0341,0,-0.0347,0,-0.0348,-0.0339,-0.0338,0,0,0,-0.0456,-0.0437,-0.0429,-0.0476,-0.0469,-0.0446,-0.0453,-0.0379,-0.0374,-0.0335,-0.0346,-0.0342,-0.0347,-0.0338,-0.0337,-0.016,-0.0159,0,0,-0.0458,-0.0467,-0.0432,-0.0426,-0.0473,-0.0454,-0.0452,-0.0377,-0.0375,-0.0345,-0.034,-0.0345,-0.0337,-0.0336,-0.0162,-0.016,0,0,0,-0.047,-0.0468,-0.0464,-0.043,-0.0434,-0.0453,-0.0452,-0.0378,-0.0377,-0.0339,-0.0344,-0.0337,-0.0335,-0.0163,-0.0161,-0.0194,0,0,0,-0.047,-0.0476,-0.0465,-0.0469,-0.0436,-0.0417,-0.0455,-0.0382,-0.0374,-0.0344,-0.0337,-0.0334,-0.0164,-0.0162,-0.0196,-0.0245,0,0,0,-0.0475,-0.0477,-0.0478,-0.047,-0.0466,-0.0418,-0.0412,-0.0381,-0.0377,-0.0338,-0.0334,-0.0165,-0.0162,-0.0198,-0.0246,-0.0272,0,0,0,-0.048,-0.0475,-0.0478,-0.0463,-0.0467,-0.0411,-0.0413,-0.0374,-0.034,-0.0336,-0.0164,-0.0161,-0.0198,-0.0246,-0.0272,-0.031,0,0,0,-0.0472,-0.0474,-0.0461,-0.0463,-0.0418,-0.0413,-0.0344,-0.0313,-0.0279,-0.0185,-0.0181,-0.0195,-0.0246,-0.0272,-0.0146,0,0,0,0,-0.0456,-0.0448,-0.0432,-0.0412,-0.0377,-0.0345,-0.0301,-0.0269,-0.0198,-0.025,-0.013,-0.016,-0.0177,-0.0193,-0.0148,-0.0148,-0.0149,-0.0149,-0.0149,-0.0458,-0.0433,-0.0406,-0.0369,-0.0334,-0.028,-0.0249,-0.0187,-0.0153,-0.0112,-0.0137,-0.0115,-0.0124,-0.0061,-0.0061,-0.0061,-0.0061,-0.0061,-0.0061,-0.0442,-0.0432,-0.0395,-0.0368,-0.0327,-0.0278,-0.0196,-0.0175,-0.0122,-0.0087,-0.0101,-0.0163,-0.0062,-0.0062,-0.0062,-0.0062,-0.0062,-0.0062,-0.0061,-0.0459,-0.0451,-0.0438,-0.0409,-0.038,-0.0321,-0.0309,-0.0242,-0.0173,-0.0176,-0.0195,-0.0143,-0.0201,-0.0182,-0.0182,-0.0182,-0.0183,-0.0183,-0.0183,-0.0494,-0.0472,-0.0487,-0.0462,-0.0469,-0.046,-0.0396,-0.0368,-0.0291,-0.0247,-0.0198,-0.0157,-0.0153,-0.0205,-0.0188,-0.0187,-0.0186,-0.0186,-0.0185,-0.0513,-0.0532,-0.0546,-0.0564,-0.0576,-0.0559,-0.0523,-0.0444,-0.0425,-0.0383,-0.0276,-0.027,-0.0277,-0.0271,-0.0328,-0.0347,-0.0347,-0.0348,0,-0.0553,-0.0553,-0.0592,-0.0624,-0.064,-0.0607,-0.058,-0.0532,-0.0428,-0.0411,-0.0412,-0.0293,-0.0287,-0.0296,-0.0291,-0.0358,0,0,0,-0.0575,-0.0579,-0.0618,-0.064,-0.0652,-0.0593,-0.0561,-0.0527,-0.0453,-0.0433,-0.0361,-0.0357,-0.0298,-0.0201,-0.0198,-0.0193,-0.0278,0,0]}]]